Regional Weather Roundup
Issued by NWS

Home | Current Version | Previous Version | Text Only | Print | Product List | Glossary On
Versions: 1 2 3 4 5 6 7 8 9 10 11 12 13 14 15 16 17 18 19 20 21 22 23 24 25 26 27 28 29 30 31 32 33 34 35 36 37 38 39 40 41 42 43 44 45 46 47 48 49 50
000
ASUS44 KLIX 312310
RWRLA
LOUISIANA WEATHER ROUNDUP
NATIONAL WEATHER SERVICE NEW ORLEANS LA
600 PM CDT THU JUL 31 2014

NOTE: "FAIR" INDICATES FEW OR NO CLOUDS BELOW 12,000 FEET WITH NO
      SIGNIFICANT WEATHER AND/OR OBSTRUCTIONS TO VISIBILITY.
      SKY/WX - SKY CONDITION AND SIGNIFICANT WEATHER.
      TMP - AIR TEMPERATURE.    DP   - DEWPOINT TEMPERATURE.
      RH  - RELATIVE HUMIDITY.  PRES - PRESSURE.
      HX  - HEAT INDEX.         WCI  - WIND CHILL INDEX.

*  THESE STATIONS ARE NOT NWS OR FAA STATIONS AND ARE NOT UNDER
   NWS QUALITY CONTROL.

LAZ040-048-061>063-065-066-069-010000-
SOUTHEAST LOUISIANA

CITY           SKY/WX    TMP DP  RH WIND       PRES   REMARKS
N.O. AUDUBON     N/A     90  67  45 MISG        N/A
N.O. INTL ARPT PTSUNNY   88  62  41 N8        29.99S
N.O. LAKEFRONT MOSUNNY   87  57  35 NE3       29.99F
N.O. DOWNTOWN* FAIR      88  63  42 NW3       29.99S
SLIDELL        PTSUNNY   85  66  53 NE5       29.98F
BATON ROUGE    PTSUNNY   85  68  56 NE8       29.98S
BOOTHVILLE     MOSUNNY   84  65  52 NE5       30.00F
BELLE CHASSE   PTSUNNY   85  65  51 E5        29.99R
BOGALUSA*      FAIR      85  64  50 CALM      30.01F
GALLIANO*      NOT AVBL
NEW ROADS*     FAIR      82  68  61 NE6       29.99S
GONZALES*      FAIR      88  72  58 E3        29.97F
HAMMOND*       PTSUNNY   88  61  40 E5        30.01S
HOUMA*         NOT AVBL
PORT FOURCHON* CLEAR     84  66  54 E8        30.00F

$$

LAZ041-044-053-054-010000-
SOUTHWEST LOUISIANA

CITY           SKY/WX    TMP DP  RH WIND       PRES   REMARKS
LAKE CHARLES   PTSUNNY   86  73  65 S7        29.95S
LAFAYETTE      MOSUNNY   86  72  62 CALM      29.97F
PATTERSON      CLOUDY    81  75  83 NE18      30.02S
SALT POINT       N/A     88  73  61 SW3       29.97F HX  95
NEW IBERIA     PTSUNNY   88  71  57 E7        29.97F
CHENAULT AIRPK MOSUNNY   86  73  66 SE8       29.96S

$$

LAZ027-028-010000-
CENTRAL LOUISIANA

CITY           SKY/WX    TMP DP  RH WIND       PRES   REMARKS
FORT POLK      CLOUDY    81  72  74 E6        29.96F
ALEXANDRIA INT CLOUDY    80  71  74 E7        29.97S
ALEXANDRIA     CLOUDY    81  71  71 NE3       29.99F

$$

LAZ001-002-010000-
NORTHWEST LOUISIANA

CITY           SKY/WX    TMP DP  RH WIND       PRES   REMARKS
SHREVEPORT     LGT RAIN  73  70  90 E10       29.95F
BARKSDALE AFB  LGT RAIN  73  72  94 E7        29.96F
DTN SHREVEPORT HVY RAIN  72  70  94 E9        29.96F FOG

$$

LAZ014-016-010000-
NORTHEAST LOUISIANA

CITY           SKY/WX    TMP DP  RH WIND       PRES   REMARKS
MONROE         CLOUDY    77  66  68 E6        30.02F
TALLULAH       CLOUDY    80  64  58 E3        30.02F

$$



USA.gov is the U.S. government's official web portal to all federal, state and local government web resources and services.